Location: La Cornouaille
(47.9640°N, 1.2941°W)
Time: 22:05:35
(UTC+00:00)

Daily predictions for brighter satellites

Satellite Brightness Start Highest point End
(mag) Time Altitude Azimuth Time Altitude Azimuth Time Altitude Azimuth
SJ 16-02 1.3 16:45:04 10° NNW 16:49:26 63° ENE 16:53:47 10° SSE
Okean 3 Rocket 3.6 16:48:30 10° N 16:53:02 70° E 16:57:31 10° SSE
RESURS DK-1 4.5 16:50:11 10° W 16:53:19 21° NW 16:56:30 10° N
NOAA 11 4.4 16:49:31 10° SSE 16:54:56 80° WSW 17:00:24 10° NNW
MOS 1 Rocket 4.3 16:52:16 10° N 16:57:19 52° WNW 17:02:03 10° SW
SeaSat 1 4.4 16:55:13 10° N 16:58:56 22° NW 17:02:38 10° W
USA 306 2.9 16:55:30 10° WSW 16:59:45 80° NNW 17:04:00 10° ENE
NOSS 3-1 (A) 4.3 16:53:02 10° NW 16:59:56 48° NE 17:08:03 10° ESE
CORIOLIS 4.4 16:55:16 10° SE 17:00:26 49° ENE 17:05:39 10° N
NOSS 2-1 (C) 2.8 16:57:14 10° SW 17:00:31 85° NW 17:03:52 10° NE
CZ-2D R/B 4.2 16:58:45 10° ESE 17:01:56 25° ENE 17:05:08 10° N
Spot 1 4.3 16:57:30 10° NNE 17:02:04 78° ESE 17:06:53 10° SSW
NOSS 3-1 (C) 4.1 16:56:03 10° NW 17:03:17 67° NE 17:11:51 10° SE
USA 234 3.6 16:57:54 10° SE 17:04:26 72° SW 17:10:58 10° WNW
SL-08 R/B 3.4 17:00:47 10° NNE 17:05:35 81° WNW 17:10:15 10° SSW
Iridium 2 3.6 17:01:48 10° N 17:05:35 83° E 17:09:19 10° S
Aureole 3 4.4 17:00:09 10° S 17:05:37 76° E 17:12:27 10° NNE
Cosmos 1842 Rocket 4.0 17:02:50 10° SSE 17:07:01 42° E 17:11:16 10° NNE
Cosmos 1833 Rocket 4.0 17:04:19 10° SE 17:08:14 20° E 17:11:52 11° ENE
Cosmos 1777 Rocket 4.5 17:03:24 10° NNW 17:08:39 69° WSW 17:13:54 10° S
NOSS 2-1 (D) 3.0 17:06:35 10° SW 17:09:50 68° NW 17:13:10 10° NE
Meteor 2-2 Rocket 4.4 17:04:31 10° S 17:10:30 69° E 17:16:29 10° NNE
PSLV R/B 4.1 17:10:22 10° SE 17:13:47 37° ENE 17:17:14 10° N
CZ-4B R/B 3.8 17:09:35 10° SE 17:14:23 33° ENE 17:19:08 10° N
Meteor PRIRODA 4.1 17:11:10 10° S 17:14:47 64° WSW 17:18:25 10° NNW
Sich 1 4.3 17:12:28 10° NNE 17:15:36 19° ENE 17:18:42 10° ESE
USA 307 3.0 17:11:57 10° WSW 17:16:14 72° NNW 17:19:51 14° ENE
ERBS 2.1 17:13:49 10° SW 17:17:00 71° SE 17:19:27 16° ENE
Cosmos 1862 4.0 17:13:14 10° NNW 17:17:10 59° W 17:21:05 10° S
Cosmos 1939 Rocket 2.8 17:13:13 10° SSE 17:17:20 78° ENE 17:21:28 10° N
Cosmos 1766 Rocket 4.2 17:13:41 10° NNW 17:17:58 58° W 17:22:14 10° S
SMAP 3.0 17:13:30 10° SSE 17:18:08 75° ENE 17:22:48 10° N
ARGOS 4.0 17:14:08 10° ESE 17:18:42 29° ENE 17:23:16 10° N
Cosmos 1898 Rocket 4.1 17:14:15 10° N 17:19:05 35° ENE 17:23:51 10° ESE
Cosmos 1606 2.6 17:15:37 10° S 17:19:21 78° E 17:23:09 10° NNE
H-2A R/B 2.4 17:15:17 10° SE 17:20:11 43° ENE 17:24:59 10° N
COSMOS 2455 4.4 17:21:26 10° SE 17:24:31 14° ESE 17:25:53 13° E
ATLAS CENTAUR R/B 2.4 17:21:03 10° WSW 17:25:02 43° NW 17:29:20 10° NNE
FengYun 1-2 T 4.4 17:20:56 10° SSE 17:26:33 79° WSW 17:32:09 10° NNW
Cosmos 2221 2.4 17:22:21 10° S 17:26:36 77° E 17:30:55 10° NNE
Cosmos 44 3.1 17:22:36 10° NW 17:27:28 71° NE 17:32:00 10° SE
COSMO-SKYMED 1 3.6 17:29:13 14° NE 17:32:07 26° E 17:35:46 10° SSE
Cosmos 2026 Rocket 4.3 17:28:13 10° N 17:34:04 42° ENE 17:39:48 10° SE
deb Chang Zheng 4 4.0 17:32:52 10° SE 17:36:53 39° ENE 17:40:55 10° N
CZ-2C R/B 3.2 17:33:39 10° NNE 17:38:24 34° E 17:43:04 10° SSE
USA 308 3.2 17:34:19 10° WSW 17:38:31 57° NNW 17:41:12 21° NE
Cosmos 1500 4.2 17:36:59 10° NNE 17:40:06 24° ENE 17:40:06 24° ENE
Okean O Rocket 2.1 17:37:04 10° SE 17:41:09 37° ENE 17:45:16 10° N
Meteor 1-25 Rocket 4.2 17:37:45 10° N 17:43:16 60° ENE 17:48:46 10° SSE
ISS -3.1 17:40:20 10° WNW 17:43:36 42° N 17:44:55 28° NE
CZ-4C R/B 3.5 17:39:12 10° NW 17:45:19 35° NNE 17:49:48 20° E
YAOGAN 1 3.9 17:50:23 20° NE 17:50:23 20° NE 17:52:35 10° NNE
MOS 1-B 4.3 17:47:17 10° SSE 17:53:03 84° ENE 17:58:53 10° NNW
Cosmos 2084 3.5 17:52:49 10° NW 17:57:04 60° NE 17:59:42 23° ESE
CZ-4 R/B 3.5 18:00:21 14° NNE 18:00:21 14° NNE 18:01:06 10° N
Cosmos 2322 Rocket 4.0 17:55:16 10° N 17:57:36 13° NNE 17:57:36 13° NNE
Cosmos 2369 4.0 17:52:53 10° NNW 17:58:23 44° NE 18:02:24 18° ESE
Cosmos 1743 Rocket 3.6 17:56:55 10° NNW 18:01:16 80° W 18:05:34 10° S
GEOS 3 Rocket 3.6 17:56:54 10° SE 18:02:05 69° NE 18:07:15 10° NW
Cosmos 1782 3.2 17:58:21 10° SSE 18:02:06 40° E 18:02:36 38° ENE
Cosmos 1697 Rocket 2.6 18:01:06 10° NNW 18:06:44 70° ENE 18:12:19 10° SE
Cosmos 1937 Rocket 3.5 18:01:50 10° NNW 18:07:07 60° ENE 18:12:22 10° SE
USA 305 3.6 18:03:57 10° W 18:07:59 43° NNW 18:09:22 32° NNE
Cosmos 1763 Rocket 3.3 18:02:58 10° SSW 18:08:00 72° ESE 18:11:17 22° NNE
NOSS 2-2 (C) 4.5 18:03:35 10° NNW 18:08:18 46° NE 18:10:59 29° E
Cosmos 1980 Rocket 2.5 18:03:14 10° NNW 18:08:38 42° NE 18:10:40 31° E
Cosmos 841 Rocket 4.0 18:05:08 10° SSE 18:09:46 34° ESE 18:10:09 34° E
Cosmos 1340 Rocket 3.8 18:08:21 10° NNW 18:12:17 48° W 18:16:12 10° S
SL-16 R/B 3.8 18:08:38 10° N 18:11:40 18° NNE 18:11:40 18° NNE
Cosmos 1656 4.3 18:07:07 10° NW 18:12:33 58° WSW 18:18:00 10° S
Cosmos 1666 Rocket 4.4 18:08:35 10° N 18:11:32 32° NE 18:11:32 32° NE
USA 267 3.8 18:08:54 22° NE 18:12:55 50° NNW 18:19:11 10° W
Meteor 2-14 Rocket 4.3 18:07:29 10° N 18:13:38 74° E 18:19:42 10° SSE
Cosmos 2082 Rocket 2.9 18:13:43 10° SSE 18:18:33 33° ESE 18:18:33 33° ESE
USA 276 2.2 18:16:58 10° WNW 18:19:58 69° SW 18:19:58 69° SW
SKYMED 2 3.4 18:17:49 24° NNE 18:20:23 79° ESE 18:24:44 10° S
Lacrosse 5 rocket 2.8 18:17:56 10° NW 18:20:53 23° N 18:20:53 23° N
Cosmos 1602 3.8 18:18:23 10° NNW 18:22:13 73° W 18:26:03 10° S
Cosmos 1092 Rocket 4.2 18:16:07 10° NNW 18:22:28 76° W 18:28:47 10° S
Cosmos 1809 Rocket 4.5 18:17:02 10° N 18:23:10 82° W 18:29:14 10° S
COSMOS 2406 3.2 18:18:26 10° S 18:24:03 58° ESE 18:26:02 39° NE
Cosmos 2278 4.1 18:19:03 10° NNW 18:24:27 41° NE 18:24:47 40° ENE
Cosmos 1933 3.5 18:20:36 10° SSW 18:24:39 74° W 18:27:10 22° N
USA 229 DEB 4.0 18:20:35 10° NW 18:27:55 82° SW 18:35:44 10° SSE
USA 229 4.0 18:20:41 10° NW 18:28:01 83° SW 18:35:49 10° SE
Meteor 2-21 Rocket 4.3 18:23:46 10° N 18:29:55 74° E 18:35:59 10° SSE
Feng Yun 1-1 Rocket 4.3 18:25:11 10° SSE 18:31:05 72° ENE 18:36:58 10° NNW
Cosmos 372 Rocket 3.9 18:28:51 10° NNW 18:34:04 64° ENE 18:35:14 50° ESE
ATLAS 2AS CENTAUR R/B 4.3 18:30:13 10° WNW 18:36:25 25° NNW 18:39:54 18° NNE
Cosmos 858 Rocket 4.4 18:31:23 10° NNW 18:36:43 88° WSW 18:41:59 10° SSE
Cosmos 2142 Rocket 4.3 18:31:34 10° S 18:37:37 68° E 18:43:47 10° NNE
Meteor 1-26 Rocket 4.3 18:33:24 10° S 18:39:20 90° W 18:45:25 10° NNE
USA 306 3.8 18:36:03 10° WNW 18:40:00 37° N 18:40:00 37° N
Cosmos 1833 Rocket 2.8 18:45:56 10° SW 18:51:32 73° WNW 18:53:35 40° NNE
Sich 1 4.0 18:49:25 10° NNW 18:53:30 45° W 18:57:35 10° SSW
CZ-4B R/B 4.4 18:49:40 10° S 18:54:50 42° W 18:59:56 10° NNW
Cosmos 2279 Rocket 3.8 18:49:31 10° S 18:55:45 86° E 19:01:21 13° N
USA 307 4.1 18:52:36 10° WNW 18:55:53 34° NNW 18:55:53 34° NNW
Meteor 1-14 Rocket 4.3 18:51:28 10° NNW 18:57:15 83° W 19:03:08 10° S
ARGOS 4.0 18:53:29 10° S 18:58:44 49° W 19:03:59 10° NNW
Cosmos 2266 Rocket 4.4 18:53:24 10° N 18:58:09 47° NNE 18:58:09 47° NNE
H-2A R/B 4.0 18:55:13 10° SSW 18:59:44 29° W 19:04:11 10° NW
NOSS 2-2 (D) 4.2 18:56:38 10° NW 19:01:46 90° N 19:02:49 64° SE
NOSS 2-2 (E) 4.5 18:57:56 10° NW 19:03:15 77° SW 19:05:40 42° SSE
Landsat 5 4.2 19:03:52 50° WNW 19:03:52 50° WNW 19:07:49 10° SW
ATLAS CENTAUR R/B 4.0 19:02:45 10° NW 19:05:06 14° NNW 19:05:34 14° NNW
COSMO-SKYMED 1 4.0 19:06:26 24° NNW 19:08:20 35° WNW 19:12:17 10° SW
COSMOS 2455 2.8 19:03:27 10° SSW 19:09:04 74° SSE 19:09:04 74° SSE
Cosmos 1655 Rocket 4.1 19:04:28 10° N 19:09:56 63° NNE 19:09:56 63° NNE
Cosmos 540 Rocket 4.0 19:11:35 10° SW 19:16:34 53° WNW 19:16:55 52° NW
ATLAS CENTAUR R/B 2.9 19:09:39 10° WSW 19:16:49 57° WNW 19:16:49 57° WNW
Okean O Rocket 3.7 19:13:50 10° SSW 19:17:34 26° W 19:21:22 10° NW
CZ-2C R/B 3.9 19:14:22 12° N 19:18:43 37° WNW 19:23:25 10° SW
ISS -0.6 19:17:20 10° WNW 19:17:54 14° WNW 19:17:54 14° WNW
Cosmos 2360 Rocket 4.4 19:22:04 10° N 19:23:05 14° N 19:23:05 14° N
CZ-4 R/B 4.4 19:36:21 10° NNW 19:36:21 10° NNW 19:36:21 10° NNW
CZ-4C R/B 2.8 19:27:31 10° NW 19:34:43 88° SW 19:35:02 84° SSE
Cosmos 2322 Rocket 4.2 19:37:55 10° NNW 19:39:25 18° NNW 19:39:25 18° NNW
Cosmos 1980 Rocket 3.5 19:47:25 10° NW 19:52:30 37° WSW 19:52:30 37° WSW
USA 267 4.2 19:56:15 38° NNW 19:56:15 38° NNW 20:01:13 10° WNW
SL-16 R/B 4.2 19:51:54 10° NNW 19:53:32 20° NNW 19:53:32 20° NNW
Cosmos 2082 Rocket 3.7 19:57:11 10° SW 20:00:28 32° WSW 20:00:28 32° WSW
